Broken Bow, NE

10:57 AM CDT on August 04, 2015 (GMT -0500)
Broken Bow Municipal | | Change Station
CLOSE
Current Station
Airport
Location: Broken Bow,
Elevation: 2546 ft
Nearby Weather Stations

Elev 2546 ft 41.44 °N, 99.64 °W | Updated 4 minutes ago

Overcast
Overcast
75 °F
Feels Like 75 °F
N
15
Wind Variable Wind from ESE
Gusts 24 mph

Today
High -- | Low -- °F
--% Chance of Precip.
Yesterday
High -- | Low -- °F
Precip. -- in
6:36 AM 8:52 PM
Waning Gibbous, 76% visible
Pressure 29.94 in
Visibility 10.0 miles
Clouds Mostly Cloudy 5500 ft
Dew Point 59 °F
Humidity 57%
Rainfall 0.00 in
Snow Depth Not available.
UV 4 out of 12
Pollen 7.90 out of 12
Air Quality Not available.
Flu Activity Not available.
METAR KBBW 041553Z AUTO 11013G21KT 10SM BKN055 24/15 A3000 RMK AO2 SLP137 T02390150

More Conditions Fewer Conditions

Pressure 29.94 in
Visibility 10.0 miles
Clouds Mostly Cloudy 5500 ft
Dew Point 59 °F
Humidity 57%
Rainfall 0.00 in
Snow Depth Not available.
UV 4 out of 12
Pollen 7.90 out of 12
Air Quality Not available.
Flu Activity Not available.
METAR KBBW 041553Z AUTO 11013G21KT 10SM BKN055 24/15 A3000 RMK AO2 SLP137 T02390150

More Conditions Fewer Conditions

Nowcast | as of 9:55 am CDT on August 4, 2015

Scattered thunderstorms are expected to continue developing over southwest Nebraska and into the sandhills through noon CDT. A few storms may become strong with heavy rain...small hail and wind gusts to 40 mph through the morning hours and may affect portions of the Interstate 80 corridor from Brady to Ogallala...and Highway 83 from Curtis to Stapleton. As the day progresses...storm intensity is expected to increase and there is a slight chance for severe thunderstorms across portions of southwest Nebraska into the afternoon hours.

×

10-Day Weather Forecast

×

Almanac

Astronomy

Aug. 04, 2015 Rise Set
Actual Time
Civil Twilight
Nautical Twilight
Astronomical Twilight
Moon
Length of Visible Light
Length of Day
Tomorrow will be .
, % of the Moon is Illuminated

Today's Extremes

State Highs State Lows

Community

WunderPhotos

Upload Photos

1,843,909 photos uploaded!

WunderBlogs® & News

Nearby

Air Quality

  Air Quality AQ Index Pollutant
Not available.

Snow Depth

Station Depth Elevation

Earthquake Activity

City Distance Mag. Time & Date
Minimum magnitude displayed is 2.5.

Coastal Water Temperatures

Place Temperature

Stations

Nearby Weather Stations

Station Location Temp. Windchill Dew Point Humidity Wind Precip. Elev Updated Type